Find Starlink 1482

NORAD ID: 45773 Int'l Des: 2020-038 Owner: SPXS Country: US Constellation: starlink operational
LEOCIRCULAR

Live-Position

3D-Globus wird geladen...

Über Starlink 1482

Beschreibung wird geladen...

Nächste Überflüge

Passes for default location (London). Set your location on the main map for personalized predictions.

Höhenverlauf

Loading altitude history...

Zweizeiliger Elementsatz

1 45773U 20038AV 26130.10592313 .00029347 00000-0 84545-3 0 9999
2 45773 53.1583 264.6457 0002294 271.1548 88.9192 15.35527638326263
Epoch: 10. Mai 2026 • Age: 20 hours

Aktueller Status

Höhe 465.2 km
Geschwindigkeit 7.63 km/s
Subsatellitenpunkt -23.27°S, 102.15°W
Startdatum 13. Juni 2020
Alter 5.9 years
Typ internet

Technische Details

Klassifizierung Payload
Masse 260.00 kg
Trockenmasse 248.00 kg
Gesamtmasse 260.00 kg
Länge 0.20 m
Durchmesser 2.80 m
Spannweite 9.00 m
Form Box + pan
Hersteller SPXS
Bus-Typ Starlink
Phasenstatus In Orbit
Besitzer/Staat SPXS/US

Most Searched